IW2HUZ-13 Weather Reports


Display with metric or nautical units.
time (UTC)temp
F
wind
direction
speed
MPH
gust
MPH
rain 1hr
in
rain 24hr
in
rain mn
in
humidity
%
barometer
mb
20260507212505 47 181 2.0 2.0 0.00 0.14 0.14 86 1009.3
20260507212006 48 181 2.0 2.0 0.00 0.14 0.14 85 1009.1
20260507211505 48 181 2.0 2.0 0.00 0.14 0.14 85 1009.1
20260507211006 48 181 2.0 2.0 0.00 0.14 0.14 85 1009.3
20260507210505 48 181 2.0 2.0 0.00 0.15 0.14 85 1009.4
20260507205505 47 187 2.0 4.0 0.00 0.15 0.14 87 1009.3
20260507205006 47 187 2.0 4.0 0.00 0.15 0.14 87 1009.3
20260507204505 47 186 3.0 4.0 0.00 0.15 0.14 87 1009.1
20260507204006 47 182 3.0 4.0 0.00 0.15 0.14 87 1009.1
20260507203505 47 161 3.0 6.0 0.00 0.15 0.14 86 1009.1
20260507203006 47 148 2.0 6.0 0.00 0.15 0.14 87 1009.2
20260507202006 47 144 4.0 6.0 0.00 0.15 0.14 86 1009.1
20260507201505 47 147 2.0 4.0 0.00 0.15 0.14 86 1008.9
20260507201006 47 144 2.0 4.0 0.00 0.15 0.14 87 1009.0
20260507200505 47 144 3.0 4.0 0.00 0.15 0.14 86 1008.7
20260507200006 47 146 2.0 4.0 0.00 0.15 0.14 86 1008.7
20260507195006 47 136 3.0 6.0 0.00 0.15 0.14 87 1008.7
20260507194505 48 144 4.0 6.0 0.00 0.15 0.14 86 1008.7
20260507194006 48 140 2.0 4.0 0.00 0.15 0.14 85 1008.5
20260507193505 48 135 4.0 4.0 0.00 0.15 0.14 84 1008.5
20260507192505 48 135 4.0 6.0 0.00 0.15 0.14 83 1008.6
20260507191506 47 130 4.0 7.0 0.00 0.15 0.14 86 1008.2
20260507191005 47 127 4.0 7.0 0.00 0.15 0.14 87 1008.1
20260507190506 47 124 3.0 6.0 0.00 0.15 0.14 88 1008.2
20260507190006 47 125 4.0 7.0 0.00 0.15 0.14 87 1008.3
20260507185505 47 125 4.0 7.0 0.00 0.15 0.14 87 1008.1
20260507185006 47 125 4.0 7.0 0.00 0.17 0.14 87 1008.0
20260507184005 47 118 4.0 8.0 0.00 0.21 0.14 88 1008.3
20260507182505 47 119 5.0 9.0 0.00 0.24 0.14 88 1007.9
20260507182005 47 118 4.0 9.0 0.00 0.24 0.14 89 1008.0
20260507181506 47 113 4.0 6.0 0.00 0.24 0.14 89 1007.9
20260507181005 47 115 4.0 6.0 0.00 0.24 0.14 89 1007.9
20260507180506 47 126 3.0 6.0 0.00 0.24 0.14 90 1007.6
20260507175506 48 124 3.0 4.0 0.00 0.24 0.14 89 1007.7
20260507175005 49 128 2.0 6.0 0.00 0.24 0.14 87 1007.5
20260507174506 49 120 3.0 6.0 0.00 0.25 0.14 87 1007.5
20260507174005 48 115 4.0 6.0 0.00 0.25 0.14 88 1007.8
20260507173506 48 113 3.0 6.0 0.00 0.25 0.14 89 1007.6
20260507173005 49 109 3.0 6.0 0.00 0.25 0.14 87 1007.6
20260507172505 48 118 3.0 6.0 0.00 0.25 0.14 87 1007.6
20260507172005 49 124 2.0 7.0 0.00 0.25 0.14 85 1007.4
20260507171506 49 127 3.0 7.0 0.00 0.25 0.14 86 1007.5
20260507170506 49 112 4.0 6.0 0.00 0.26 0.14 87 1007.4
20260507170005 49 107 4.0 4.0 0.00 0.26 0.14 86 1007.5
20260507165506 49 103 3.0 6.0 0.00 0.26 0.14 85 1007.4
20260507165005 49 103 2.0 6.0 0.00 0.26 0.14 87 1007.5
20260507164505 49 102 3.0 7.0 0.00 0.26 0.14 85 1007.3
20260507164006 50 99 4.0 7.0 0.00 0.27 0.14 85 1007.5
20260507163505 50 105 4.0 7.0 0.00 0.27 0.14 84 1007.5
20260507162006 49 108 2.0 4.0 0.00 0.28 0.14 87 1007.3
20260507161506 49 107 2.0 4.0 0.00 0.28 0.14 87 1007.3
20260507161005 49 92 3.0 4.0 0.00 0.28 0.14 86 1006.7
20260507160505 50 93 2.0 4.0 0.00 0.28 0.14 87 1007.3
20260507160006 50 101 2.0 4.0 0.00 0.28 0.14 84 1007.4
20260507155505 52 98 2.0 4.0 0.00 0.28 0.14 84 1007.3
20260507155006 52 98 2.0 4.0 0.00 0.28 0.14 83 1007.3
20260507154505 51 112 0.0 2.0 0.00 0.28 0.14 84 1007.3
20260507153505 52 91 0.0 4.0 0.00 0.28 0.14 84 1006.6
20260507153005 50 99 0.0 4.0 0.00 0.28 0.14 85 1007.3
20260507152506 51 127 2.0 6.0 0.00 0.28 0.14 85 1007.2
20260507150006 49 314 0.0 2.0 0.00 0.28 0.14 90 1007.4
20260507145006 50 314 1.0 2.0 0.00 0.31 0.14 87 1007.6
20260507144505 50 0 0.0 0.0 0.00 0.32 0.14 91 1007.4
20260507144006 50 0 0.0 0.0 0.00 0.32 0.14 92 1007.4
20260507143005 50 314 0.0 2.0 0.00 0.34 0.14 89 1006.7
20260507142505 50 314 0.0 2.0 0.00 0.35 0.14 88 1007.5
20260507141007 51 0 0.0 0.0 0.00 0.40 0.14 89 1007.5
20260507140006 50 106 0.0 2.0 0.00 0.41 0.14 87 1007.5
20260507135006 50 120 1.0 4.0 0.00 0.41 0.14 85 1007.4
20260507134505 51 120 2.0 4.0 0.00 0.43 0.14 84 1007.4
20260507133505 50 111 1.0 6.0 0.00 0.43 0.14 88 1007.5
20260507133006 50 91 1.0 7.0 0.00 0.43 0.14 87 1007.5
20260507132505 52 90 1.0 7.0 0.00 0.43 0.14 84 1007.4
20260507132005 50 119 1.0 4.0 0.00 0.43 0.14 91 1007.7
20260507131005 50 123 0.0 6.0 0.00 0.43 0.14 93 1007.6
20260507130505 49 129 2.0 6.0 0.00 0.44 0.14 90 1007.7
20260507130006 51 113 2.0 4.0 0.00 0.44 0.14 93 1007.8
20260507125505 50 103 2.0 4.0 0.00 0.45 0.14 94 1007.6
20260507125006 49 115 0.0 4.0 0.00 0.45 0.14 94 1007.5
20260507124505 49 101 1.0 6.0 0.00 0.45 0.14 92 1007.7
20260507124005 49 87 1.0 6.0 0.00 0.45 0.14 91 1007.5
20260507123505 50 85 3.0 4.0 0.00 0.45 0.14 89 1007.4
20260507122505 49 108 2.0 4.0 0.00 0.45 0.14 93 1006.9
20260507122010 49 104 2.0 4.0 0.00 0.45 0.14 94 1007.4
20260507121505 48 97 1.0 4.0 0.00 0.45 0.14 98 1007.4
20260507120505 48 111 0.0 4.0 0.00 0.45 0.14 99 1007.4
20260507120006 48 95 0.0 6.0 0.00 0.45 0.14 99 1007.6
20260507115505 48 95 2.0 6.0 0.00 0.45 0.14 99 1007.5
20260507115005 49 105 1.0 6.0 0.00 0.45 0.14 99 1007.6
20260507114505 46 103 1.0 6.0 0.00 0.46 0.14 99 1007.7
20260507114006 47 84 1.0 4.0 0.00 0.46 0.14 99 1007.6
20260507113505 49 86 1.0 4.0 0.00 0.46 0.14 99 1007.6
20260507113006 50 96 0.0 4.0 0.00 0.46 0.14 99 1007.6
20260507112506 48 100 1.0 4.0 0.00 0.46 0.14 99 1007.6
20260507111507 46 96 2.0 4.0 0.00 0.47 0.14 99 1007.8
20260507111005 46 93 2.0 4.0 0.00 0.47 0.14 99 1007.8
20260507110506 48 99 0.0 4.0 0.00 0.47 0.14 99 1007.8
20260507110005 48 103 1.0 4.0 0.00 0.47 0.14 99 1008.0
20260507105505 47 100 2.0 4.0 0.00 0.47 0.14 99 1007.6
20260507105005 46 93 2.0 7.0 0.00 0.47 0.14 99 1007.8
20260507104005 48 96 1.0 4.0 0.00 0.47 0.14 99 1007.9
20260507102007 45 93 0.0 4.0 0.00 0.47 0.14 99 1007.7
20260507101507 45 95 2.0 4.0 0.00 0.47 0.14 99 1007.9
20260507101005 45 91 1.0 4.0 0.00 0.47 0.14 99 1007.7
20260507100506 47 92 2.0 4.0 0.00 0.47 0.14 99 1007.7
20260507100005 46 97 1.0 4.0 0.00 0.47 0.14 99 1007.9
20260507095506 46 93 3.0 4.0 0.00 0.47 0.14 99 1007.8
20260507095005 47 93 2.0 4.0 0.00 0.47 0.14 99 1007.5
20260507094506 45 98 3.0 4.0 0.00 0.47 0.14 99 1007.7
20260507094005 45 115 0.0 4.0 0.00 0.47 0.14 99 1007.6
20260507093505 45 108 1.0 4.0 0.00 0.47 0.14 99 1007.6
20260507093005 44 92 0.0 4.0 0.00 0.47 0.14 99 1007.6
20260507092505 44 90 1.0 4.0 0.00 0.47 0.14 99 1007.6
20260507092006 45 85 2.0 4.0 0.00 0.47 0.14 99 1007.4
20260507091505 44 92 0.0 4.0 0.00 0.47 0.14 99 1007.6
20260507090505 42 92 2.0 4.0 0.00 0.47 0.14 99 1007.6
20260507090006 43 92 0.0 2.0 0.00 0.47 0.14 99 1007.3
20260507085505 43 94 1.0 2.0 0.00 0.48 0.14 99 1007.4
20260507085006 44 112 0.0 2.0 0.00 0.48 0.14 99 1007.4
20260507084505 44 102 1.0 4.0 0.00 0.51 0.14 99 1007.3
20260507084006 44 101 0.0 4.0 0.00 0.53 0.14 99 1007.3
20260507083005 43 68 1.0 2.0 0.00 0.54 0.14 99 1007.3
20260507082506 44 90 0.0 2.0 0.00 0.54 0.14 99 1007.2
20260507082006 44 0 0.0 0.0 0.00 0.56 0.14 99 1007.1
20260507081512 44 0 0.0 0.0 0.00 0.56 0.14 99 1007.2
20260507081005 44 0 0.0 0.0 0.00 0.57 0.14 99 1007.3
20260507080006 44 0 0.0 0.0 0.00 0.57 0.14 99 1007.1
20260507075505 44 0 0.0 0.0 0.00 0.57 0.14 99 1006.9
20260507075005 44 0 0.0 0.0 0.00 0.57 0.14 99 1007.0
20260507074506 43 90 0.0 2.0 0.00 0.58 0.14 99 1007.0
20260507074005 43 101 0.0 2.0 0.00 0.58 0.14 99 1006.7
20260507073506 42 122 0.0 2.0 0.00 0.58 0.14 99 1007.0
20260507073005 42 136 0.0 2.0 0.00 0.59 0.14 99 1007.1
20260507072505 43 0 0.0 0.0 0.00 0.59 0.14 99 1006.9
20260507072006 43 0 0.0 0.0 0.00 0.59 0.14 99 1006.9
20260507071505 43 0 0.0 0.0 0.00 0.59 0.14 99 1007.0
20260507071006 43 0 0.0 0.0 0.00 0.59 0.14 99 1007.0
20260507070505 43 0 0.0 0.0 0.00 0.59 0.14 99 1006.9
20260507070010 44 0 0.0 0.0 0.00 0.59 0.14 99 1006.7
20260507065005 42 90 0.0 2.0 0.00 0.59 0.14 99 1006.7
20260507064505 42 82 0.0 2.0 0.00 0.59 0.14 99 1006.5
20260507064006 41 78 0.0 2.0 0.00 0.59 0.14 99 1006.4
20260507063505 41 0 0.0 0.0 0.00 0.59 0.14 99 1006.4
20260507063005 40 0 0.0 0.0 0.00 0.59 0.14 99 1006.7
20260507062506 40 314 0.0 2.0 0.00 0.59 0.14 99 1006.6
20260507062005 40 314 0.0 2.0 0.00 0.59 0.14 99 1006.7
20260507061506 40 314 0.0 2.0 0.00 0.60 0.14 99 1006.5
20260507061005 40 314 0.0 2.0 0.00 0.60 0.14 99 1006.4
20260507060505 40 323 0.0 2.0 0.00 0.60 0.14 99 1006.5
20260507060005 39 341 1.0 2.0 0.00 0.61 0.14 99 1006.0
20260507055506 40 1 0.0 2.0 0.00 0.61 0.14 99 1006.2
20260507055005 40 96 0.0 2.0 0.00 0.61 0.14 99 1006.2
20260507054506 40 96 0.0 2.0 0.00 0.61 0.14 99 1006.1
20260507054005 40 96 2.0 4.0 0.00 0.61 0.14 99 1006.4
20260507053506 41 95 2.0 4.0 0.00 0.61 0.14 99 1006.1
20260507053005 41 94 2.0 4.0 0.00 0.63 0.14 99 1006.1
20260507052506 41 95 2.0 4.0 0.00 0.63 0.14 99 1006.1
20260507051005 41 86 2.0 4.0 0.00 0.64 0.14 99 1005.7
20260507050505 40 75 3.0 4.0 0.00 0.64 0.14 99 1005.8
20260507050006 40 79 0.0 4.0 0.00 0.65 0.14 99 1005.7
20260507045505 40 85 2.0 4.0 0.00 0.65 0.14 99 1005.6
20260507045005 40 74 2.0 4.0 0.00 0.65 0.14 99 1005.6
20260507044506 40 22 2.0 4.0 0.00 0.66 0.14 99 1005.6
20260507044005 40 1 0.0 2.0 0.00 0.67 0.14 99 1005.6
20260507043506 40 1 1.0 2.0 0.00 0.67 0.14 99 1005.8
20260507043005 40 1 1.0 2.0 0.00 0.67 0.14 99 1005.8
20260507042505 40 0 0.0 0.0 0.00 0.69 0.14 99 1005.6
20260507042006 40 0 0.0 0.0 0.00 0.69 0.14 99 1005.6
20260507041505 40 0 0.0 0.0 0.00 0.69 0.14 99 1005.6
20260507041006 40 0 0.0 0.0 0.00 0.69 0.14 99 1005.5
20260507040505 40 0 0.0 0.0 0.00 0.69 0.14 99 1005.5
20260507040006 40 0 0.0 0.0 0.00 0.69 0.14 99 1005.4
20260507035006 40 0 0.0 0.0 0.01 0.69 0.14 99 1005.6
20260507034505 40 0 0.0 0.0 0.01 0.69 0.14 99 1005.7
20260507034006 40 0 0.0 0.0 0.01 0.69 0.14 99 1005.5
20260507033505 40 292 0.0 2.0 0.01 0.70 0.14 99 1005.5
20260507032506 40 293 1.0 2.0 0.01 0.74 0.14 99 1005.5
20260507032006 39 298 2.0 2.0 0.01 0.74 0.14 99 1005.4
20260507031505 39 297 2.0 2.0 0.02 0.74 0.14 99 1005.4
20260507030505 39 326 2.0 2.0 0.02 0.76 0.14 99 1005.4
20260507030006 38 337 2.0 2.0 0.05 0.77 0.14 99 1005.5
20260507025505 39 326 2.0 2.0 0.06 0.78 0.14 99 1005.5
20260507025006 39 311 1.0 2.0 0.05 0.77 0.13 99 1005.5
20260507024005 38 292 2.0 2.0 0.05 0.78 0.13 99 1005.6
20260507023506 39 290 1.0 2.0 0.05 0.78 0.13 99 1005.7
20260507023005 39 290 2.0 2.0 0.05 0.78 0.13 99 1005.6
20260507022006 39 295 2.0 4.0 0.05 0.78 0.13 99 1005.7
20260507021505 39 296 2.0 4.0 0.04 0.77 0.12 99 1005.5
20260507021006 39 294 2.0 4.0 0.04 0.77 0.12 99 1005.3
20260507015506 38 281 5.0 8.0 0.02 0.74 0.08 99 1005.5
20260507015005 38 292 2.0 4.0 0.02 0.74 0.08 99 1005.4
20260507014506 38 292 3.0 4.0 0.02 0.74 0.08 99 1005.3
20260507014005 38 298 2.0 4.0 0.04 0.74 0.08 99 1005.4
20260507013505 38 301 2.0 4.0 0.04 0.74 0.08 99 1005.4
20260507013005 38 295 3.0 4.0 0.04 0.74 0.08 99 1005.2
20260507012506 38 292 2.0 4.0 0.04 0.74 0.08 99 1005.4
20260507012005 38 292 2.0 4.0 0.04 0.74 0.08 99 1005.2
20260507011505 38 292 2.0 4.0 0.04 0.74 0.08 99 1005.2
20260507010506 38 274 2.0 4.0 0.06 0.74 0.08 99 1005.2
20260507010006 40 264 2.0 4.0 0.05 0.73 0.07 99 1005.1
20260507005505 39 281 0.0 2.0 0.04 0.72 0.06 99 1005.0
20260507005006 38 269 0.0 2.0 0.04 0.72 0.06 99 1005.0
20260507004505 39 206 1.0 6.0 0.05 0.72 0.06 99 1005.0
20260507003505 41 122 4.0 7.0 0.04 0.71 0.05 99 1005.2
20260507003005 39 287 1.0 4.0 0.05 0.71 0.05 99 1005.2
20260507002505 39 294 2.0 4.0 0.05 0.71 0.05 99 1005.2
20260507002005 39 283 0.0 6.0 0.05 0.71 0.05 99 1005.1
20260507001505 40 290 2.0 6.0 0.05 0.71 0.05 99 1005.1
20260507001005 40 309 2.0 4.0 0.04 0.70 0.04 99 1005.2
20260507000505 40 310 3.0 6.0 0.02 0.70 0.02 99 1005.3
20260507000006 39 301 3.0 6.0 0.02 0.70 0.02 99 1005.0
20260506235505 39 291 2.0 7.0 0.02 0.72 0.02 99 1005.2
20260506235005 39 287 2.0 7.0 0.02 0.72 0.02 99 1005.4
20260506234006 40 292 1.0 4.0 0.01 0.74 0.01 99 1005.5
20260506233006 39 297 1.0 4.0 0.00 0.73 0.00 99 1005.4
20260506232006 39 292 2.0 4.0 0.00 0.73 0.00 99 1005.4
20260506231505 39 291 2.0 4.0 0.00 0.73 0.00 99 1005.3
20260506231005 39 293 2.0 7.0 0.00 0.73 0.00 99 1005.5
20260506230005 39 285 2.0 4.0 0.00 0.73 0.00 99 1005.3
20260506225506 39 286 2.0 4.0 0.00 0.73 0.00 99 1005.2
20260506224505 40 261 2.0 4.0 0.00 0.73 0.00 99 1005.2
20260506224005 39 239 2.0 8.0 0.00 0.73 0.00 99 1005.3
20260506223505 41 237 1.0 8.0 0.00 0.73 0.00 99 1005.2
20260506222505 41 141 2.0 9.0 0.00 0.73 0.00 99 1005.0
20260506220506 39 297 2.0 6.0 0.01 0.73 0.00 99 1005.2
20260506220009 39 309 2.0 4.0 0.01 0.73 0.00 99 1005.3
20260506215506 39 312 2.0 4.0 0.01 0.73 0.73 99 1005.1
20260506215006 39 327 2.0 7.0 0.01 0.73 0.73 99 1004.9
20260506214006 39 325 2.0 4.0 0.01 0.73 0.73 99 1005.0
20260506213005 39 311 2.0 4.0 0.01 0.73 0.73 99 1005.1